Regional Weather Roundup
Issued by NWS

Home | Current Version | Previous Version | Graphics & Text | Print | Product List | Glossary On
Versions: 1 2 3 4 5 6 7 8 9 10 11 12 13 14 15 16 17 18 19 20 21 22 23 24 25 26 27 28 29 30 31 32 33 34 35 36 37 38 39 40 41 42 43 44 45 46 47 48 49 50
000
ASUS43 KDMX 200701
RWRIA

WEATHER ROUNDUP FOR IOWA
NATIONAL WEATHER SERVICE DES MOINES IA
100 AM CST FRI JAN 20 2017

NOTE: "FAIR" INDICATES FEW OR NO CLOUDS BELOW 12,000 FEET WITH NO
SIGNIFICANT WEATHER AND/OR OBSTRUCTIONS TO VISIBILITY.

* - THESE STATIONS ARE NOT NWS STATIONS...THUS NOT UNDER NWS
QUALITY CONTROL.  THEY ALSO DO NOT REPORT WEATHER SUCH
AS PRECIPITATION OR FOG.

IAZ001>003-012>014-020>022-031>034-043>046-200800-
   NORTHWEST IOWA

CITY           SKY/WX    TMP DP  RH WIND       PRES   REMARKS
CARROLL *      FOG       34  34 100 CALM      29.58F VSB 1/4
CHEROKEE *     CLOUDY    35  35 100 S3        29.59F FOG
DENISON *      CLOUDY    37  37 100 S6        29.56F FOG     WCI  33
LE MARS *      FOG       37  37 100 S6        29.60S VSB 3/4 WCI  33
ORANGE CITY *  FOG       36  36 100 S5        29.59S VSB 1/4 WCI  32
SHELDON *      FOG       36  36 100 S6        29.57S VSB 1/2 WCI  31
SIOUX CITY     FOG       38  38 100 SE6       29.59F VSB 1/2 WCI  33
SPENCER        FOG       34  34 100 S5        29.58F VSB 1/4 WCI  30
STORM LAKE *   FOG       34  34 100 SW5       29.58F VSB<1/4 WCI  30
$$

IAZ055>058-069>071-079>083-090>094-200800-
   SOUTHWEST IOWA

CITY           SKY/WX    TMP DP  RH WIND       PRES   REMARKS
ATLANTIC *     CLOUDY    37  37 100 CALM      29.59F FOG
AUDUBON *      FOG       36  34  93 CALM      29.59F VSB 1/2
CLARINDA *     FOG       37  37 100 CALM      29.62F VSB 1/4
COUNCIL BLFS * FOG       37  37 100 SE3       29.59F VSB 1/4
CRESTON *      FOG       37  37 100 SE5       29.61S VSB 1/2 WCI  34
HARLAN  *      FOG       37  37 100 CALM      29.62F VSB 1/4
LAMONI         FOG       38  37  97 CALM      29.61S VSB 1/2
RED OAK *      FOG       37  37 100 CALM      29.60F VSB 1/4
SHENANDOAH *   FOG       37  37 100 CALM      29.61F VSB 1/2
$$

IAZ047>049-059>061-072>074-084-200800-
   CENTRAL IOWA

CITY           SKY/WX    TMP DP  RH WIND       PRES   REMARKS
AMES           FOG       35  35 100 CALM      29.60F VSB 1/4
ANKENY *       FOG       36  36 100 CALM      29.62F VSB 1/4
BOONE *        FOG       34  34 100 SE5       29.59F VSB 1/4 WCI  30
CHARITON *     FOG       37  36  93 W5        29.60F VSB<1/4 WCI  34
DES MOINES     FOG       37  36  96 CALM      29.61F VSB 1/4
GRINNELL*      FOG       35  35  99 E5        29.62S VSB 1/4 WCI  31
KNOXVILLE *    FOG       36  36 100 CALM      29.60F VSB 1/4
MARSHALLTOWN   FOG       35  35 100 E5        29.61F VSB 1/4 WCI  31
NEWTON *       FOG       36  36 100 E3        29.61S VSB 1/4
PELLA *        FOG       37  36  98 CALM      29.62F VSB 1/4
PERRY *        FOG       35  35  98 CALM      29.60S VSB 1/4
$$

IAZ004>006-015-016-023>025-035-036-200800-
   NORTH CENTRAL IOWA

CITY           SKY/WX    TMP DP  RH WIND       PRES   REMARKS
ALGONA *       FOG       34  34 100 SE6       29.59F VSB 1/2 WCI  29
CLARION *      FOG       34  34 100 SE6       29.60F VSB 1/4 WCI  29
ESTHERVILLE    FOG       32  32 100 SE3       29.58F VSB 1/4
FORT DODGE *   CLOUDY    36  34  93 CALM      29.60F VSB 1/2
MASON CITY     FOG       33  33 100 E6        29.62F VSB 3/4 WCI  28
FOREST CITY *  FOG       34  34 100 E6        29.60F VSB 1/2 WCI  29
WEBSTER CITY * FOG       34  34 100 E5        29.58F VSB 1/4 WCI  30
IOWA FALLS *   FOG       35  34  97 E3        29.62S VSB 1/4
$$

IAZ007>011-017>019-026>030-037>042-050>054-066-200800-
   NORTHEAST IOWA

CITY           SKY/WX    TMP DP  RH WIND       PRES   REMARKS
CEDAR RAPIDS   FOG       35  35 100 E6        29.62F VSB 3/4 WCI  30
CHARLES CITY * FOG       34  34 100 E9        29.63F VSB 1/2 WCI  26
CLINTON *      CLOUDY    37  36  96 E7        29.65S FOG     WCI  32
DECORAH *      CLOUDY    34  34 100 E7        29.64F FOG     WCI  28
DUBUQUE        FOG       36  36 100 NE5       29.64F VSB 1/4 WCI  32
MONTICELLO *   FOG       37  37 100 CALM      29.64S VSB 3/4
OELWEIN *      CLOUDY    34  34 100 E7        29.64S FOG     WCI  28
WATERLOO       FOG       34  34 100 E5        29.63F VSB 3/4 WCI  30
$$

IAZ064-065-067-068-078-200800-
   EAST CENTRAL IOWA

CITY           SKY/WX    TMP DP  RH WIND       PRES   REMARKS
DAVENPORT      FOG       36  35  96 E3        29.64S VSB 1/4
IOWA CITY      FOG       37  37 100 E5        29.65F VSB 1   WCI  33
MUSCATINE *    FOG       37  36  93 CALM      29.65R VSB 1/4
QUAD CITIES    FOG       37  35  92 E5        29.63R VSB 1/2 WCI  33
$$

IAZ062-063-075>077-085>089-095>099-200800-
   SOUTHEAST IOWA

CITY           SKY/WX    TMP DP  RH WIND       PRES   REMARKS
BURLINGTON     FOG       39  39 100 CALM      29.62F VSB 1/4
FAIRFIELD *    FOG       37  37 100 E5        29.62S VSB 1/4 WCI  34
FORT MADISON * FOG       39  39 100 CALM      29.63F VSB 1/4
KEOKUK *       FOG       39  39 100 CALM      29.61F VSB<1/4
OSKALOOSA *    FOG       36  36  99 E7        29.62S VSB 1/4 WCI  31
OTTUMWA        FOG       37  37 100 E7        29.60F VSB 1/4 WCI  32
WASHINGTON *   MIX PCPN  37  36  93 SE5       29.64S VSB 1/4 WCI  34
$$

ABBREVIATIONS USED IN REMARKS
   TC - TEMPERATURES IN CELSIUS
  WCI - WIND CHILL INDEX
   HX - HEAT INDEX
  VSB - VISIBILITY
$$





USA.gov is the U.S. government's official web portal to all federal, state and local government web resources and services.